sat.trackr.live / text

‹ back to catalog

STARLINK-1536

NORAD 46070 · 2020-055AV

PAYLOAD ACTIVE UNKNOWN

§ Identity

Operator
Country
US
Launch date
2020-08-07
Launch site
AFETR
Launch vehicle
Mass (kg)
RCS (m²)

Purposes: comms

External: N2YO · Heavens-Above · Gunter

§ Orbital elements

Epoch: 2026-09-19T13:37:57.207072Z

Period
94.01 min
Inclination
53.1595°
Eccentricity
0.0001660
Mean motion
15.31706829 rev/d
Perigee alt
469.6 km
Apogee alt
471.9 km
Semi-major
6,848.9 km
B*
1.2336e-4
RAAN
279.4910°
Arg perigee
90.4112°
Mean anomaly
269.7079°
Rev number
33,894

§ Raw data

STARLINK-15361 46070U 20055AV  26262.56802323  .00003465  00000+0  12336-3 0  99912 46070  53.1595 279.4910 0001660  90.4112 269.7079 15.31706829338948

JSON: /api/v1/satellites/46070 · /tle

For live sub-satellite position, see the globe view (requires WebGL).

§ Visibility from observer

Set your observer location to see the next 7 days of passes ≥ 10°. The values pass through the URL so the page stays shareable.

No JS? Fill the form by hand. The geolocation button needs JavaScript.